Location: Clinton NY
(43.0598°N, 75.3602°W)
Time: 07:24:16
(UTC-04:00)

Daily predictions for brighter satellites

Satellite Brightness Start Highest point End
(mag) Time Altitude Azimuth Time Altitude Azimuth Time Altitude Azimuth
YAOGAN 6 3.2 20:16:14 10° SE 20:19:36 39° ENE 20:23:02 10° N
EO 1 Del DPAF 4.2 20:16:12 10° N 20:19:56 53° WNW 20:23:39 10° SSW
Nadezhda 3 Rocket 4.1 20:14:37 10° N 20:20:52 60° E 20:27:07 10° SSE
Cosmos 2278 Rocket 3.1 20:17:21 10° N 20:22:28 33° NE 20:27:33 10° ESE
Genesis I 4.0 20:22:12 10° NNW 20:26:05 40° NE 20:29:56 10° ESE
Cosmos 1633 Rocket 3.2 20:21:53 10° N 20:26:08 51° E 20:30:22 10° SSE
Cosmos 2221 4.3 20:30:29 10° SW 20:34:26 37° WNW 20:38:25 10° N
NOSS 2-1 (C) 3.6 20:33:49 10° SW 20:37:25 67° NW 20:41:27 10° NNE
Cosmos 1515 Rocket 4.3 20:34:21 10° SSE 20:38:19 32° E 20:42:18 10° NNE
NOSS 2-1 (D) 3.7 20:34:48 10° SW 20:38:24 64° NW 20:42:25 10° NNE
BREEZE-M DEB (TANK) 2.7 20:33:16 10° WNW 20:38:32 69° NNE 20:40:37 14° ESE
Cosmos 1340 3.0 20:35:48 10° SSW 20:39:34 70° W 20:43:22 10° N
Thor Agena Rocket 3.5 20:36:09 10° NNE 20:41:26 78° ESE 20:46:42 10° S
SL-24 R/B - RUBIN 2 4.3 20:38:24 10° NW 20:42:38 51° WSW 20:46:52 10° SSE
Cosmos 2228 Rocket 3.7 20:39:02 10° SSE 20:43:01 36° E 20:47:03 10° NNE
Lacrosse 5 4.3 20:41:13 10° NW 20:44:26 17° N 20:47:40 10° NE
ATLAS 2AS CENTAUR R/B 3.0 20:37:15 10° NW 20:45:15 77° NE 20:52:15 11° SE
Cosmos 1825 3.0 20:49:10 10° NNE 20:52:36 31° ENE 20:54:53 17° SE
Spot 2 Rocket 3.5 20:49:40 10° SSE 20:54:43 67° ENE 20:59:47 10° N
Cosmos 1328 Rocket 3.5 20:52:39 10° S 20:57:03 76° E 21:01:30 10° NNE
Cosmos 2154 Rocket 4.3 20:52:26 10° SSW 20:58:41 71° W 21:04:55 10° N
ATLAS CENTAUR R/B 1.0 20:55:44 10° SSW 20:59:23 81° SE 21:03:14 10° NE
SL-8 R/B 3.8 20:55:01 10° SW 20:59:40 52° SE 21:04:20 10° ENE
SL-16 R/B 3.3 21:01:33 15° SE 21:04:31 23° E 21:08:50 10° NE
Resurs 01 Rocket 1.9 21:03:08 10° S 21:07:33 70° WSW 21:12:00 10° NNW
Cosmos 1470 Rocket 3.5 21:04:52 10° N 21:09:18 80° E 21:13:19 12° S
ARGOS 3.7 21:06:46 19° SE 21:10:06 39° ENE 21:15:04 10° N
Meteor 2-3 Rocket 4.0 21:07:35 10° NNW 21:13:10 71° W 21:18:45 10° S
BREEZE-M DEB (TANK) 4.1 21:06:16 10° W 21:13:54 39° NNW 21:16:43 10° NE
NOSS 3-4 (A) 4.3 21:08:52 10° NNW 21:15:32 46° NE 21:20:26 20° ESE
NOSS 3-4 (C) 4.4 21:08:58 10° NNW 21:15:38 46° NE 21:20:31 20° ESE
CZ-4B DEB 4.5 21:15:50 26° SSE 21:17:37 64° ENE 21:21:06 10° N
Cosmos 1939 Rocket 4.0 21:14:29 10° S 21:18:09 40° W 21:21:53 10° NNW
Cosmos 2341 Rocket 4.3 21:15:42 10° SSW 21:22:02 70° W 21:28:22 10° N
Cosmos 1869 3.4 21:19:47 19° SSE 21:22:27 56° E 21:26:24 10° NNE
NOSS 3-3 (C) 4.5 21:17:08 10° SW 21:23:08 64° NW 21:29:48 10° NNE
NOSS 0 Rocket 4.0 21:17:42 10° SSW 21:23:53 86° WNW 21:30:09 10° NNE
Meteor 2-10 Rocket 4.0 21:20:50 14° SSE 21:25:28 50° E 21:31:05 10° NNE
Cosmos 2218 Rocket 4.0 21:20:28 10° S 21:26:46 72° E 21:33:10 10° NNE
USA 267 4.0 21:23:12 10° ENE 21:28:37 27° SE 21:34:00 10° S
USA 81 4.4 21:25:12 10° N 21:30:15 44° E 21:32:21 30° SE
Cosmos 1980 3.7 21:24:52 10° SSW 21:30:34 84° WNW 21:36:18 10° NNE
ERS-1 Rocket 3.5 21:30:08 29° ESE 21:32:06 42° ENE 21:36:49 10° N
Cosmos 407 Rocket 3.8 21:27:16 10° N 21:32:16 49° ENE 21:34:17 32° ESE
Cosmos 2297 4.1 21:29:31 10° NNW 21:35:00 48° ENE 21:37:25 30° ESE
Cosmos 1408 3.0 21:32:27 10° NNW 21:36:05 60° W 21:38:11 23° SSW
Cosmos 1933 Rocket 4.0 21:33:33 10° NNW 21:37:53 60° W 21:41:04 17° S
Cosmos 2366 rocket 3.9 21:32:04 10° S 21:38:16 80° E 21:44:35 10° N
H-2A R/B 2.2 21:36:33 32° SE 21:38:34 53° ENE 21:43:23 10° N
Cosmos 2369 Rocket 4.2 21:38:02 10° N 21:41:06 14° NE 21:43:31 11° ENE
Cosmos 2333 Rocket 3.4 21:36:09 10° SW 21:41:34 45° WNW 21:46:59 10° NNE
Cosmos 1151 Rocket 3.8 21:38:10 10° SSW 21:42:19 51° W 21:46:30 10° N
Cosmos 1371 Rocket 3.9 21:37:13 10° SSW 21:42:31 82° ESE 21:47:55 10° NNE
Cosmos 1455 4.5 21:39:37 10° SW 21:42:52 26° WNW 21:46:08 10° NNW
Cosmos 1441 Rocket 3.8 21:45:32 38° ENE 21:45:32 38° ENE 21:48:31 10° NNE
SL-8 Rocket 4.3 21:41:10 10° SSW 21:47:26 68° W 21:53:42 10° N
Helios 1B rocket 4.1 21:46:53 10° NE 21:48:47 20° ENE 21:48:47 20° ENE
Cosmos 676 Rocket 4.4 21:47:17 10° N 21:52:22 46° ENE 21:53:36 39° ESE
Cosmos 1707 Rocket 4.1 21:52:59 40° E 21:52:59 40° E 21:56:44 10° NNE
MetOp-A 4.1 21:51:21 31° SSE 21:54:00 87° WSW 21:59:23 10° NNW
Cosmos 1339 Rocket 4.4 21:47:59 10° N 21:54:05 86° W 21:57:44 26° S
Cosmos 2219 Rocket 4.1 21:51:19 10° WSW 21:56:17 31° NW 22:01:15 10° N
CZ-4C R/B 4.1 21:59:36 14° ENE 21:59:36 14° ENE 22:00:42 10° ENE
Cosmos 2237 Rocket 2.9 21:52:30 10° SW 21:58:00 55° WNW 22:03:34 10° NNE
Cosmos 1869 Rocket 3.4 21:55:57 10° N 22:00:20 72° E 22:00:54 62° SE
Cosmos 2056 Rocket 3.6 21:58:36 10° SSW 22:04:01 83° WNW 22:09:28 10° NNE
Cosmos 1452 Rocket 4.1 22:05:38 38° E 22:05:38 38° E 22:09:53 10° NE
Cosmos 2278 Rocket 3.3 22:01:21 10° NW 22:06:36 39° WSW 22:09:51 21° SSW
Helios 1A 2.9 22:08:42 67° E 22:08:49 68° ENE 22:12:59 10° N
Terra 2.9 22:09:24 29° ENE 22:09:24 29° ENE 22:13:27 10° N
Cosmos 1862 3.2 22:05:35 10° N 22:09:39 89° E 22:09:45 86° SSE
ATLAS 5 CENTAUR R/B 4.0 22:05:18 10° NNW 22:09:47 23° NE 22:12:37 17° ENE
Cosmos 2098 Rocket 3.9 22:07:13 15° SSW 22:10:53 47° W 22:14:34 10° N
Cosmos 1733 Rocket 4.4 22:07:50 10° NNE 22:10:52 26° NE 22:10:52 26° NE
Cosmos 405 Rocket 2.8 22:15:05 71° N 22:15:05 71° N 22:18:38 10° N
Cosmos 1437 Rocket 4.4 22:11:30 10° NNE 22:13:44 24° NE 22:13:44 24° NE
Cosmos 405 3.9 22:14:11 10° NNW 22:17:29 44° W 22:17:29 44° W
Cosmos 1190 Rocket 4.4 22:18:25 10° NNW 22:23:36 57° WSW 22:24:56 44° SSW
Cosmos 1140 Rocket 3.3 22:21:33 10° NNW 22:26:45 77° ENE 22:27:07 73° ESE
ATLAS 2A CENTAUR R/B 4.5 22:15:10 10° SW 22:27:18 27° S 22:27:46 27° S
SPOT 5 2.6 22:28:35 88° ENE 22:28:35 88° ENE 22:33:04 10° NNW
Lacrosse 5 3.4 22:24:36 10° NNW 22:28:55 27° NNE 22:30:32 23° NE
Cosmos 1934 Rocket 4.0 22:33:03 53° E 22:33:08 53° E 22:39:00 10° NNE
IGS 5A 4.4 22:35:30 41° NNE 22:35:30 41° NNE 22:38:34 10° N
Cosmos 1954 Rocket 3.8 22:31:18 10° NNW 22:36:33 86° WSW 22:36:48 81° S
GEOS 3 Rocket 3.7 22:34:55 10° NE 22:40:18 80° NW 22:43:44 23° SW
SL-24 R/B 4.5 22:40:16 77° ESE 22:40:24 78° E 22:45:33 10° N
SL-8 R/B 4.3 22:37:31 10° W 22:42:14 56° NNW 22:43:31 42° NE
SL-16 R/B 2.8 22:43:10 12° SW 22:48:12 53° WNW 22:53:46 10° NNE
CZ-2C R/B 3.8 22:49:11 37° NE 22:49:11 37° NE 22:52:48 10° N
Cosmos 2344 3.5 22:44:43 10° SSW 22:52:19 85° ESE 23:00:45 10° NE
Cosmos 1933 4.5 22:54:28 42° NW 22:54:28 42° NW 22:57:39 10° N
SL-19 R/B 4.3 22:53:15 68° SW 22:53:41 71° WSW 22:59:17 10° NNW
Cosmos 1943 Rocket 3.2 22:49:41 10° N 22:54:37 32° NE 22:54:37 32° NE
Cosmos 1821 Rocket 4.1 22:57:37 53° SW 22:59:07 72° W 23:05:27 10° N
NOSS 3-4 (A) 4.4 22:59:50 10° NW 23:06:33 45° WSW 23:07:53 41° SW
NOSS 3-4 (C) 4.4 22:59:56 10° NW 23:06:39 46° WSW 23:07:59 42° SW
Cosmos 1420 Rocket 4.2 23:08:01 68° NW 23:08:01 68° NW 23:13:10 10° NNE
SPOT 1/Viking Rocket 4.3 23:09:39 43° WSW 23:09:47 43° W 23:14:45 10° NNW
USA 267 3.2 23:05:31 10° NE 23:12:05 85° NW 23:18:38 10° SW
Meteor 1-14 Rocket 4.3 23:09:00 10° NNW 23:14:00 73° NNW 23:14:00 73° NNW
Cosmos 1603 4.0 23:16:16 58° NNE 23:16:16 58° NNE 23:20:44 10° NNE
Cosmos 2123 Rocket 3.9 23:09:22 10° N 23:15:42 80° W 23:15:50 80° WSW
H-2A R/B 4.0 23:17:10 17° WSW 23:18:16 19° W 23:21:45 10° NW
Cosmos 1943 4.4 23:21:18 32° NE 23:21:18 32° NE 23:24:26 10° NNE
Helios 1B rocket 4.3 23:22:02 10° N 23:25:09 27° WNW 23:25:09 27° WNW
Cosmos 2369 Rocket 2.5 23:20:26 10° NNW 23:25:18 63° N 23:25:18 63° N
CZ-2C R/B 3.4 23:35:44 10° NNE 23:39:33 48° NNE 23:39:33 48° NNE
CZ-4C R/B 2.7 23:44:41 55° NNW 23:44:41 55° NNW 23:50:14 10° NNE
USA 234 3.3 23:45:38 72° NE 23:45:49 72° NE 23:52:21 10° NW
Terra 3.5 23:48:17 28° WNW 23:48:17 28° WNW 23:51:17 10° NNW
Cosmos 1605 Rocket 4.3 23:49:31 60° WNW 23:49:31 60° WNW 23:55:48 10° N
